Flag for United Kingdom Weather past 2 weeks in Edinburgh, Scotland, United Kingdom

Now
57 °F

Fog.


Feels Like: 55 °F
Forecast: 53 / 73 °F
Wind: 8 mph from East

Location: Edinburgh Airport

Current Time: Jul 24, 2014 at 8:03:28 AM

Latest Report: Jul 24, 2014 at 7:20 AM


Visibility: 1 mi

Pressure: 30.21 "Hg

Humidity: 100%

Dew point: 57 °F

Location of EdinburghLocation

Historic Weather in Edinburgh — Graph

°F

Edinburgh temperature yesterday

Maximum temperature yesterday: 64 °F (at 11:50 AM)
Minimum temperature yesterday: 57 °F (at 3:50 AM)
Average temperature yesterday: 60 °F

Past Weeks' High & Low Weather Summary

 TemperatureHumidityPressure
High75 °F (Jul 22, 2:50 PM)100% (Jul 10, 1:50 AM)30.30 "Hg (Jul 10, 1:50 AM)
Low45 °F (Jul 10, 3:50 AM)44% (Jul 9, 2:50 PM)29.65 "Hg (Jul 14, 5:50 PM)
Average61 °F80%30.00 "Hg
* Reported Jul 9 6:50 AM — Jul 24 6:50 AM, Edinburgh, Weather by CustomWeather, © 2014

Note: Actual official high and low records may vary slightly from our data, if they occured in-between our weather recording intervals... More about our weather records

Advertising

Edinburgh weather history for previous 24 hours

 ConditionsComfort  
Time TempWeatherWind HumidityBarometerVisibility
6:50 AM
Jul 24
57 °FFog.8 mph100%30.21 "Hg1 mi
6:20 AM57 °FFog.9 mph100%30.21 "Hg2 mi
5:50 AM57 °FFog.7 mph100%30.21 "Hg2 mi
5:20 AM57 °FFog.8 mph100%30.21 "Hg2 mi
4:50 AM57 °FFog.6 mph100%30.21 "Hg1 mi
4:20 AM57 °FFog.8 mph100%30.24 "Hg1 mi
3:50 AM57 °FFog.6 mph100%30.24 "Hg1 mi
3:20 AM57 °FFog.8 mph100%30.24 "Hg1 mi
2:50 AM57 °FFog.7 mph100%30.24 "Hg1 mi
2:20 AM57 °FFog.8 mph100%30.24 "Hg1 mi
1:50 AM57 °FFog.7 mph100%30.24 "Hg1 mi
1:20 AM57 °FFog.8 mph100%30.24 "Hg0 mi
12:50 AM57 °FFog.8 mph100%30.24 "Hg0 mi
12:20 AM57 °FFog.10 mph100%30.24 "Hg0 mi
11:50 PM
Jul 23
59 °FFog.9 mph94%30.24 "Hg1 mi
11:20 PM59 °FFog.8 mph94%30.24 "Hg1 mi
10:50 PM59 °FFog.9 mph94%30.24 "Hg2 mi
10:20 PM59 °FFog.10 mph94%30.24 "Hg3 mi
9:50 PM59 °FFog.10 mph94%30.24 "Hg3 mi
9:20 PM59 °FLow clouds.10 mph94%30.24 "Hg5 mi
8:50 PM59 °FLow clouds.12 mph94%30.21 "HgN/A
8:20 PM59 °FPartly sunny.12 mph94%30.21 "HgN/A
7:50 PM59 °FPartly sunny.12 mph94%30.21 "HgN/A
7:20 PM61 °FPartly sunny.13 mph88%30.21 "HgN/A
6:50 PM61 °FScattered clouds.14 mph88%30.21 "HgN/A
6:20 PM61 °FScattered clouds.13 mph88%30.21 "HgN/A
5:50 PM61 °FScattered clouds.14 mph88%30.24 "HgN/A
5:20 PM61 °FScattered clouds.15 mph88%30.24 "HgN/A
4:50 PM64 °FPassing clouds.14 mph83%30.24 "HgN/A
4:20 PM64 °FPassing clouds.14 mph78%30.24 "HgN/A
3:50 PM64 °FPassing clouds.14 mph78%30.24 "HgN/A
3:20 PM64 °FPassing clouds.14 mph78%30.24 "HgN/A
2:50 PM64 °FPassing clouds.14 mph78%30.24 "HgN/A
2:20 PM64 °FPassing clouds.14 mph78%30.27 "HgN/A
1:50 PM63 °FPassing clouds.13 mph83%30.27 "HgN/A
1:20 PM64 °FScattered clouds.15 mph78%30.27 "HgN/A
12:20 PM63 °FScattered clouds.13 mph83%30.27 "HgN/A
11:50 AM64 °FPartly sunny.10 mph78%30.27 "HgN/A
11:20 AM63 °FPartly sunny.10 mph83%30.27 "HgN/A
10:20 AM59 °FPartly sunny.12 mph88%30.30 "HgN/A
Weather by CustomWeather, © 2014

See weather overviewHow to use our weather pages